Rogers, AR

1:07 PM CDT on March 29, 2017 (GMT -0500)
Rogers Municipal-Carter

Weather History for KROG - May, 2013

Change the Weather History Date:

Wednesday, May 15, 2013

  Actual Average Record
Temperature  
Mean Temperature 70 °F -  
Max Temperature 75 °F 72 °F 84 °F (2001)
Min Temperature 64 °F 54 °F 39 °F (2014)
Cooling Degree Days 4    
Growing Degree Days 20 (Base 50)    
Moisture  
Dew Point 61 °F    
Average Humidity 82    
Maximum Humidity 100    
Minimum Humidity 50    
Precipitation  
Precipitation 0.44 in - - ()
Sea Level Pressure  
Sea Level Pressure 29.97 in    
Wind  
Wind Speed 12 mph (SSE)    
Max Wind Speed 21 mph    
Max Gust Speed 24 mph    
Visibility 8 miles    
Events Rain , Thunderstorm    
Averages and records for this station are not official NWS values.
T = Trace of Precipitation, MM = Missing Value Source: NWS Daily Summary

Daily Weather History Graph

Daily Weather History Graph

Search for Another Location

Airport or City:

Trip Planner

Search our weather history database for the weather conditions in past years. The results will help you decide how hot, cold, wet, or windy it might be!

Date:

Astronomy

May. 15, 2013 Rise Set
Actual Time 6:09 AM CDT 8:16 PM CDT
Civil Twilight 5:40 AM CDT 8:45 PM CDT
Nautical Twilight 5:05 AM CDT 9:20 PM CDT
Astronomical Twilight 4:28 AM CDT 9:58 PM CDT
Moon 10:44 AM CDT (5/15) 12:04 AM CDT (5/15)
Length of Visible Light 15h 04m
Length of Day
14h 06m
Waxing Crescent, 27% of the Moon is Illuminated
May 15
Waxing Crescent
May 17
First Quarter
May 24
Full
May 31
Last Quarter
Jun 8
New

Hourly Weather History & Observations

Time (CDT) Temp. Dew Point Humidity Pressure Visibility Wind Dir Wind Speed Gust Speed Precip Events Conditions
12:57 AM 69.1 °F 51.1 °F 53% 29.99 in 10.0 mi SSW 15.0 mph - N/A   Clear
1:57 AM 68.0 °F 50.0 °F 52% 29.98 in 10.0 mi South 15.0 mph - N/A   Clear
2:57 AM 68.0 °F 48.9 °F 50% 29.98 in 10.0 mi South 16.1 mph - N/A   Clear
3:57 AM 66.9 °F 50.0 °F 54% 29.98 in 10.0 mi SSW 15.0 mph - N/A   Clear
4:57 AM 66.9 °F 51.1 °F 57% 29.97 in 10.0 mi SSW 11.5 mph - N/A   Clear
5:57 AM 66.0 °F 52.0 °F 60% 29.98 in 10.0 mi South 13.8 mph 20.7 mph N/A   Clear
6:57 AM 66.0 °F 53.1 °F 63% 29.99 in 10.0 mi South 13.8 mph - N/A   Clear
7:57 AM 69.1 °F 57.9 °F 68% 29.99 in 10.0 mi South 16.1 mph - N/A   Clear
8:57 AM 72.0 °F 61.0 °F 68% 30.00 in 10.0 mi South 16.1 mph 21.9 mph N/A   Clear
9:35 AM 71.6 °F 62.6 °F 73% 30.03 in 10.0 mi SSW 17.3 mph 24.2 mph N/A   Mostly Cloudy
9:41 AM 73.4 °F 62.6 °F 69% 30.02 in 10.0 mi South 18.4 mph 21.9 mph N/A   Scattered Clouds
9:57 AM 73.9 °F 63.0 °F 68% 29.98 in 10.0 mi South 15.0 mph - N/A   Partly Cloudy
10:57 AM 73.9 °F 64.0 °F 71% 29.99 in 10.0 mi SSW 9.2 mph - N/A   Scattered Clouds
11:57 AM 75.0 °F 64.0 °F 69% 29.98 in 10.0 mi SW 15.0 mph - N/A   Scattered Clouds
12:34 PM 75.2 °F 64.4 °F 69% 30.02 in 10.0 mi South 20.7 mph 24.2 mph N/A   Mostly Cloudy
12:57 PM 73.0 °F 64.0 °F 73% 29.99 in 10.0 mi SSW 15.0 mph - N/A   Overcast
1:57 PM 73.9 °F 64.0 °F 71% 29.96 in 10.0 mi South 15.0 mph - N/A   Mostly Cloudy
2:02 PM 73.4 °F 64.4 °F 73% 29.99 in 10.0 mi South 12.7 mph - N/A   Scattered Clouds
2:57 PM 73.9 °F 64.9 °F 73% 29.95 in 10.0 mi SSW 11.5 mph - N/A   Mostly Cloudy
3:03 PM 73.4 °F 64.4 °F 73% 29.98 in 10.0 mi SSW 8.1 mph - N/A   Mostly Cloudy
3:57 PM 71.1 °F 64.0 °F 78% 29.95 in 10.0 mi SSW 12.7 mph - 0.00 in Rain , Thunderstorm Light Rain
4:24 PM 64.4 °F 62.6 °F 94% 29.99 in 6.0 mi SSW 13.8 mph 21.9 mph 0.06 in Rain , Thunderstorm Thunderstorms and Rain
4:27 PM 64.4 °F 62.6 °F 94% 29.99 in 5.0 mi South 11.5 mph - 0.12 in Rain , Thunderstorm Heavy Thunderstorms and Rain
4:32 PM 64.4 °F 62.6 °F 94% 29.98 in 2.0 mi SW 4.6 mph - 0.26 in Rain , Thunderstorm Heavy Thunderstorms and Rain
4:36 PM 64.4 °F 62.6 °F 94% 29.98 in 1.8 mi West 4.6 mph - 0.31 in Rain , Thunderstorm Heavy Thunderstorms and Rain
4:39 PM 64.4 °F 62.6 °F 94% 29.98 in 2.5 mi WNW 4.6 mph - 0.32 in Rain , Thunderstorm Heavy Thunderstorms and Rain
4:43 PM 64.4 °F 62.6 °F 94% 29.98 in 4.0 mi WNW 3.5 mph - 0.32 in Rain , Thunderstorm Light Thunderstorms and Rain
4:57 PM 64.4 °F 62.6 °F 94% 29.97 in 3.0 mi Calm Calm - 0.39 in Rain , Thunderstorm Rain
4:59 PM 64.0 °F 63.0 °F 96% 29.94 in 3.0 mi NE 3.5 mph - 0.40 in Rain , Thunderstorm Rain
5:05 PM 64.4 °F 62.6 °F 94% 29.97 in 5.0 mi ENE 4.6 mph - 0.02 in Rain Rain
5:23 PM 64.4 °F 62.6 °F 94% 29.97 in 10.0 mi East 8.1 mph - 0.03 in Rain Light Rain
5:30 PM 64.4 °F 64.4 °F 100% 29.97 in 9.0 mi SE 5.8 mph - 0.04 in Rain Light Rain
5:47 PM 64.4 °F 64.4 °F 100% 29.96 in 10.0 mi East 8.1 mph - 0.04 in   Overcast
5:57 PM 64.4 °F 64.4 °F 100% 29.95 in 10.0 mi East 6.9 mph - 0.04 in   Overcast
5:59 PM 64.9 °F 64.0 °F 97% 29.92 in 10.0 mi East 6.9 mph - 0.04 in   Overcast
6:44 PM 66.2 °F 64.4 °F 94% 29.94 in 10.0 mi East 9.2 mph - N/A   Mostly Cloudy
6:57 PM 66.0 °F 64.0 °F 93% 29.91 in 10.0 mi East 9.2 mph - N/A   Mostly Cloudy
7:23 PM 64.4 °F 64.4 °F 100% 29.94 in 10.0 mi East 6.9 mph - N/A   Overcast
7:52 PM 66.2 °F 64.4 °F 94% 29.95 in 10.0 mi East 3.5 mph - N/A   Overcast
7:57 PM 64.9 °F 64.0 °F 97% 29.92 in 10.0 mi East 4.6 mph - N/A   Overcast
8:13 PM 64.4 °F 64.4 °F 100% 29.95 in 10.0 mi ESE 4.6 mph - N/A   Overcast
8:57 PM 64.9 °F 64.0 °F 97% 29.91 in 8.0 mi ESE 5.8 mph - N/A   Scattered Clouds
9:57 PM 64.9 °F 64.0 °F 97% 29.92 in 9.0 mi ESE 5.8 mph - N/A   Scattered Clouds
10:57 PM 64.9 °F 63.0 °F 93% 29.88 in 6.0 mi ESE 6.9 mph - N/A   Partly Cloudy
11:57 PM 64.0 °F 63.0 °F 96% 29.87 in 6.0 mi SE 6.9 mph - N/A   Clear